Tracking 18980 objects as of 18-Feb-2018
HD Live streaming from Space Station
objects crossing your sky now

COSMOS 2251 DEB

Track COSMOS 2251 DEB now!
10-day predictions


NORAD ID: 35451
Int'l Code: 1993-036AKV
Perigee: 564.9 km
Apogee: 718.9 km
Inclination: 73.9 °
Period: 97.4 minutes
Semi major axis: 7012 km
RCS: 0.0039 m2 (small)
Launch date: June 16, 1993
Source: Commonwealth of Independent States (former USSR) (CIS)
Launch site: PLESETSK MISSILE AND SPACE COMPLEX (PKMTR)

Note: This is SATELLITE DEBRIS
aabbcc
Your satellite tracking list
Your tracking list is empty




NASA's NSSDC Master Catalog

Two Line Element Set (TLE):
1 35451U 93036AKV 18046.48508070 +.00000667 +00000-0 +88232-4 0  9996
2 35451 073.9448 073.8485 0109801 279.0872 079.7892 14.78290654249142
Source of the keplerian elements: AFSPC